Station Historical Data
Daily Summary for March 19, 2017 Units:  English    Metric   Both
« Previous Day
Next Day »
Daily Weekly Monthly Yearly Custom
  High: Low: Average:
Temperature: 39.7 °F 30.0 °F 34.5 °F
Dew Point: 31.6 °F 27.3 °F 30.2 °F
Humidity: 93% 69% 85%
Wind Speed: 8.0mph 0.0mph 2.2mph
Wind Gust: 12.0mph - -
Wind- - SSE
Pressure: 30.35 in 30.15 in -
Precipitation: 0.00 in    
Historical Graphs
 
 
Tabular Data for March 19, 2017
Time Temperature Dew Point Pressure Wind Wind Speed Wind Gust Humidity Rainfall Rate (Hourly)
00:04 33.5 °F 31.4 °F 30.15 in North 1.0 mph 2.0 mph 92% 0.00 in
00:09 33.5 °F 31.4 °F 30.15 in North 2.0 mph 3.0 mph 92% 0.00 in
00:14 33.5 °F 31.4 °F 30.15 in North 3.0 mph 3.0 mph 92% 0.00 in
00:19 33.5 °F 31.4 °F 30.15 in North 2.0 mph 3.0 mph 92% 0.00 in
00:24 33.5 °F 31.4 °F 30.15 in North 2.0 mph 3.0 mph 92% 0.00 in
00:29 33.5 °F 31.4 °F 30.16 in NNW 2.0 mph 3.0 mph 92% 0.00 in
00:34 33.4 °F 31.3 °F 30.15 in NNW 2.0 mph 2.0 mph 92% 0.00 in
00:39 33.4 °F 31.3 °F 30.16 in North 1.0 mph 3.0 mph 92% 0.00 in
00:44 33.4 °F 31.3 °F 30.16 in Calm   2.0 mph 92% 0.00 in
00:49 33.4 °F 31.3 °F 30.16 in Calm   1.0 mph 92% 0.00 in
00:54 33.3 °F 31.5 °F 30.16 in Calm   1.0 mph 93% 0.00 in
00:59 33.3 °F 31.5 °F 30.16 in NNW 1.0 mph 4.0 mph 93% 0.00 in
01:05 33.3 °F 31.5 °F 30.16 in Calm   4.0 mph 93% 0.00 in
01:10 33.4 °F 31.6 °F 30.16 in NNW 1.0 mph 4.0 mph 93% 0.00 in
01:15 33.3 °F 31.5 °F 30.16 in NNW 1.0 mph 3.0 mph 93% 0.00 in
01:20 33.3 °F 31.5 °F 30.16 in NNE 1.0 mph 3.0 mph 93% 0.00 in
01:25 33.3 °F 31.2 °F 30.16 in Calm   2.0 mph 92% 0.00 in
01:30 33.3 °F 31.2 °F 30.16 in NNE 1.0 mph 3.0 mph 92% 0.00 in
01:35 33.3 °F 31.2 °F 30.16 in NNE 1.0 mph 3.0 mph 92% 0.00 in
01:45 33.3 °F 31.2 °F 30.17 in Calm     92% 0.00 in
01:50 33.3 °F 31.2 °F 30.17 in NNE 3.0 mph 3.0 mph 92% 0.00 in
01:55 33.3 °F 31.2 °F 30.17 in NNE 1.0 mph 3.0 mph 92% 0.00 in
02:00 33.3 °F 31.2 °F 30.17 in NNE 2.0 mph 4.0 mph 92% 0.00 in
02:05 33.2 °F 31.1 °F 30.17 in North 1.0 mph 4.0 mph 92% 0.00 in
02:10 33.2 °F 31.1 °F 30.17 in NNE 2.0 mph 4.0 mph 92% 0.00 in
02:15 33.2 °F 31.1 °F 30.17 in NNE 1.0 mph 3.0 mph 92% 0.00 in
02:20 33.1 °F 31.0 °F 30.17 in NNE 2.0 mph 3.0 mph 92% 0.00 in
02:25 33.1 °F 31.0 °F 30.18 in NNE 3.0 mph 5.0 mph 92% 0.00 in
02:30 33.0 °F 30.9 °F 30.18 in NNE 3.0 mph 5.0 mph 92% 0.00 in
02:35 33.0 °F 31.2 °F 30.18 in NNE 3.0 mph 6.0 mph 93% 0.00 in
02:40 33.0 °F 31.2 °F 30.18 in NE 2.0 mph 5.0 mph 93% 0.00 in
02:45 32.9 °F 31.1 °F 30.18 in NNE 2.0 mph 5.0 mph 93% 0.00 in
02:50 32.9 °F 31.1 °F 30.17 in NE 3.0 mph 7.0 mph 93% 0.00 in
02:55 32.8 °F 31.0 °F 30.18 in NE 2.0 mph 7.0 mph 93% 0.00 in
03:00 32.8 °F 31.0 °F 30.18 in NE 3.0 mph 7.0 mph 93% 0.00 in
03:05 32.7 °F 30.9 °F 30.18 in NE 3.0 mph 8.0 mph 93% 0.00 in
03:10 32.7 °F 30.6 °F 30.18 in NE 4.0 mph 8.0 mph 92% 0.00 in
03:15 32.7 °F 30.6 °F 30.18 in NE 4.0 mph 9.0 mph 92% 0.00 in
03:20 32.6 °F 30.5 °F 30.17 in NE 4.0 mph 9.0 mph 92% 0.00 in
03:25 32.6 °F 30.5 °F 30.17 in NE 2.0 mph 7.0 mph 92% 0.00 in
03:30 32.7 °F 30.6 °F 30.18 in NE 3.0 mph 7.0 mph 92% 0.00 in
03:35 32.6 °F 30.5 °F 30.17 in NE 4.0 mph 8.0 mph 92% 0.00 in
03:40 32.6 °F 30.5 °F 30.17 in NNE 3.0 mph 6.0 mph 92% 0.00 in
03:45 32.6 °F 30.5 °F 30.17 in ENE 3.0 mph 5.0 mph 92% 0.00 in
03:50 32.6 °F 30.5 °F 30.17 in NE 4.0 mph 5.0 mph 92% 0.00 in
03:55 32.6 °F 30.5 °F 30.18 in Calm   5.0 mph 92% 0.00 in
04:00 32.6 °F 30.8 °F 30.18 in NE 2.0 mph 5.0 mph 93% 0.00 in
04:05 32.6 °F 30.8 °F 30.18 in NE 1.0 mph 4.0 mph 93% 0.00 in
04:10 32.6 °F 30.5 °F 30.18 in NE 1.0 mph 4.0 mph 92% 0.00 in
04:15 32.6 °F 30.8 °F 30.18 in NE 2.0 mph 5.0 mph 93% 0.00 in
04:20 32.6 °F 30.8 °F 30.19 in NE 2.0 mph 5.0 mph 93% 0.00 in
04:25 32.6 °F 30.8 °F 30.18 in NE 3.0 mph 5.0 mph 93% 0.00 in
04:30 32.5 °F 30.7 °F 30.19 in NE 2.0 mph 5.0 mph 93% 0.00 in
04:35 32.6 °F 30.8 °F 30.19 in NE 1.0 mph 3.0 mph 93% 0.00 in
04:40 32.5 °F 30.7 °F 30.19 in Calm     93% 0.00 in
04:45 32.6 °F 30.8 °F 30.19 in Calm     93% 0.00 in
04:50 32.6 °F 30.8 °F 30.20 in Calm     93% 0.00 in
04:55 32.6 °F 30.8 °F 30.20 in Calm     93% 0.00 in
05:00 32.6 °F 30.8 °F 30.21 in Calm     93% 0.00 in
05:05 32.6 °F 30.8 °F 30.21 in Calm   5.0 mph 93% 0.00 in
05:10 32.6 °F 30.8 °F 30.21 in North 1.0 mph 5.0 mph 93% 0.00 in
05:15 32.6 °F 30.8 °F 30.22 in North 1.0 mph 4.0 mph 93% 0.00 in
05:20 32.5 °F 30.7 °F 30.22 in NNW 3.0 mph 6.0 mph 93% 0.00 in
05:25 32.5 °F 30.7 °F 30.22 in NW 3.0 mph 4.0 mph 93% 0.00 in
05:30 32.4 °F 30.6 °F 30.22 in Calm   6.0 mph 93% 0.00 in
05:35 32.4 °F 30.6 °F 30.22 in North 2.0 mph 6.0 mph 93% 0.00 in
05:40 32.4 °F 30.6 °F 30.22 in North 2.0 mph 4.0 mph 93% 0.00 in
05:45 32.3 °F 30.5 °F 30.22 in North 2.0 mph 4.0 mph 93% 0.00 in
05:50 32.3 °F 30.5 °F 30.22 in NE 2.0 mph 4.0 mph 93% 0.00 in
05:55 32.3 °F 30.5 °F 30.23 in NNE 1.0 mph 3.0 mph 93% 0.00 in
06:00 32.3 °F 30.5 °F 30.23 in NNW 1.0 mph 4.0 mph 93% 0.00 in
06:04 32.3 °F 30.5 °F 30.23 in North 2.0 mph 5.0 mph 93% 0.00 in
06:10 32.3 °F 30.5 °F 30.23 in North 2.0 mph 5.0 mph 93% 0.00 in
06:15 32.2 °F 30.4 °F 30.24 in North 2.0 mph 5.0 mph 93% 0.00 in
06:19 32.2 °F 30.4 °F 30.24 in North 3.0 mph 5.0 mph 93% 0.00 in
06:25 32.2 °F 30.4 °F 30.24 in NE 1.0 mph 3.0 mph 93% 0.00 in
06:30 32.2 °F 30.4 °F 30.24 in NNE 2.0 mph 4.0 mph 93% 0.00 in
06:34 32.1 °F 30.3 °F 30.25 in NNE 2.0 mph 4.0 mph 93% 0.00 in
06:40 32.2 °F 30.4 °F 30.25 in NNE 2.0 mph 4.0 mph 93% 0.00 in
06:45 32.2 °F 30.4 °F 30.26 in NE 1.0 mph 4.0 mph 93% 0.00 in
06:50 32.2 °F 30.4 °F 30.26 in Calm   2.0 mph 93% 0.00 in
06:55 32.3 °F 30.5 °F 30.26 in North 2.0 mph 3.0 mph 93% 0.00 in
07:00 32.3 °F 30.5 °F 30.26 in NNW 2.0 mph 3.0 mph 93% 0.00 in
07:04 32.2 °F 30.4 °F 30.26 in NNW 2.0 mph 3.0 mph 93% 0.00 in
07:09 32.2 °F 30.4 °F 30.27 in North 2.0 mph 4.0 mph 93% 0.00 in
07:15 32.2 °F 30.4 °F 30.27 in North 2.0 mph 4.0 mph 93% 0.00 in
07:20 32.2 °F 30.4 °F 30.27 in North 1.0 mph 3.0 mph 93% 0.00 in
07:25 32.2 °F 30.4 °F 30.27 in NNE 2.0 mph 4.0 mph 93% 0.00 in
07:30 32.2 °F 30.4 °F 30.28 in NNE 2.0 mph 4.0 mph 93% 0.00 in
07:34 32.2 °F 30.4 °F 30.28 in North 2.0 mph 6.0 mph 93% 0.00 in
07:40 32.2 °F 30.4 °F 30.29 in North 4.0 mph 5.0 mph 93% 0.00 in
07:44 32.2 °F 30.1 °F 30.29 in North 1.0 mph 5.0 mph 92% 0.00 in
07:49 32.2 °F 30.1 °F 30.30 in North 2.0 mph 8.0 mph 92% 0.00 in
07:55 32.2 °F 30.1 °F 30.30 in NNE 3.0 mph 6.0 mph 92% 0.00 in
08:00 32.2 °F 30.1 °F 30.30 in North 2.0 mph 7.0 mph 92% 0.00 in
08:04 32.3 °F 30.2 °F 30.30 in North 2.0 mph 7.0 mph 92% 0.00 in
08:10 32.3 °F 30.2 °F 30.30 in North 2.0 mph 4.0 mph 92% 0.00 in
08:15 32.4 °F 30.3 °F 30.30 in NNE 3.0 mph 5.0 mph 92% 0.00 in
08:20 32.4 °F 30.3 °F 30.31 in NNE 3.0 mph 7.0 mph 92% 0.00 in
08:25 32.4 °F 30.3 °F 30.31 in North 2.0 mph 7.0 mph 92% 0.00 in
08:30 32.5 °F 30.2 °F 30.31 in North 2.0 mph 4.0 mph 91% 0.00 in
08:34 32.5 °F 30.2 °F 30.31 in North 3.0 mph 4.0 mph 91% 0.00 in
08:40 32.5 °F 30.2 °F 30.31 in North 2.0 mph 4.0 mph 91% 0.00 in
08:45 32.6 °F 30.3 °F 30.31 in NNE 2.0 mph 4.0 mph 91% 0.00 in
08:50 32.5 °F 30.2 °F 30.31 in NNE 3.0 mph 5.0 mph 91% 0.00 in
08:54 32.6 °F 30.0 °F 30.31 in North 3.0 mph 6.0 mph 90% 0.00 in
09:00 32.6 °F 30.0 °F 30.32 in NNE 3.0 mph 5.0 mph 90% 0.00 in
09:05 32.7 °F 30.1 °F 30.32 in NNE 2.0 mph 4.0 mph 90% 0.00 in
09:09 32.8 °F 30.2 °F 30.32 in NNE 2.0 mph 5.0 mph 90% 0.00 in
09:14 32.9 °F 30.3 °F 30.32 in NNE 3.0 mph 5.0 mph 90% 0.00 in
09:20 32.9 °F 30.3 °F 30.33 in NNE 3.0 mph 5.0 mph 90% 0.00 in
09:25 33.0 °F 30.1 °F 30.33 in NNE 3.0 mph 5.0 mph 89% 0.00 in
09:30 33.2 °F 30.3 °F 30.33 in NNE 3.0 mph 5.0 mph 89% 0.00 in
09:35 33.3 °F 30.4 °F 30.33 in NNE 3.0 mph 6.0 mph 89% 0.00 in
09:39 33.5 °F 30.6 °F 30.33 in NNE 2.0 mph 5.0 mph 89% 0.00 in
09:44 33.6 °F 30.4 °F 30.33 in NNE 3.0 mph 5.0 mph 88% 0.00 in
09:49 33.7 °F 30.5 °F 30.34 in NNE 3.0 mph 5.0 mph 88% 0.00 in
09:54 33.8 °F 30.3 °F 30.34 in NNE 2.0 mph 8.0 mph 87% 0.00 in
10:00 34.0 °F 30.5 °F 30.34 in North 3.0 mph 6.0 mph 87% 0.00 in
10:05 34.1 °F 30.6 °F 30.34 in NNE 3.0 mph 6.0 mph 87% 0.00 in
10:09 34.1 °F 30.4 °F 30.34 in NNE 3.0 mph 5.0 mph 86% 0.00 in
10:15 34.3 °F 30.5 °F 30.34 in North 3.0 mph 5.0 mph 86% 0.00 in
10:20 34.3 °F 30.5 °F 30.34 in NNE 3.0 mph 7.0 mph 86% 0.00 in
10:24 34.4 °F 30.6 °F 30.34 in NNE 3.0 mph 7.0 mph 86% 0.00 in
10:30 34.6 °F 30.8 °F 30.34 in NNE 3.0 mph 6.0 mph 86% 0.00 in
10:35 34.7 °F 30.9 °F 30.35 in NNE 3.0 mph 6.0 mph 86% 0.00 in
10:39 34.7 °F 30.7 °F 30.34 in North 3.0 mph 5.0 mph 85% 0.00 in
10:44 35.0 °F 30.9 °F 30.35 in NNE 3.0 mph 6.0 mph 85% 0.00 in
10:49 35.1 °F 30.8 °F 30.35 in NNE 2.0 mph 7.0 mph 84% 0.00 in
10:54 35.3 °F 30.7 °F 30.35 in NNE 2.0 mph 7.0 mph 83% 0.00 in
10:59 35.3 °F 30.7 °F 30.35 in NNE 3.0 mph 6.0 mph 83% 0.00 in
11:04 35.5 °F 30.8 °F 30.34 in NNE 3.0 mph 5.0 mph 83% 0.00 in
11:10 35.8 °F 31.1 °F 30.34 in NE 2.0 mph 5.0 mph 83% 0.00 in
11:14 36.4 °F 31.4 °F 30.34 in NE 4.0 mph 9.0 mph 82% 0.00 in
11:20 36.8 °F 31.2 °F 30.34 in NE 4.0 mph 9.0 mph 80% 0.00 in
11:24 36.7 °F 31.1 °F 30.34 in NE 4.0 mph 10.0 mph 80% 0.00 in
11:30 36.9 °F 31.0 °F 30.34 in NE 5.0 mph 10.0 mph 79% 0.00 in
11:35 36.9 °F 31.0 °F 30.34 in NE 4.0 mph 9.0 mph 79% 0.00 in
11:40 36.9 °F 31.0 °F 30.33 in NE 4.0 mph 8.0 mph 79% 0.00 in
11:44 37.0 °F 30.8 °F 30.34 in NNE 3.0 mph 8.0 mph 78% 0.00 in
11:49 37.0 °F 30.8 °F 30.34 in NE 4.0 mph 12.0 mph 78% 0.00 in
11:54 36.9 °F 30.7 °F 30.34 in ENE 4.0 mph 8.0 mph 78% 0.00 in
12:00 37.4 °F 31.2 °F 30.33 in NNE 4.0 mph 7.0 mph 78% 0.00 in
12:04 38.1 °F 31.2 °F 30.33 in East 1.0 mph 7.0 mph 76% 0.00 in
12:09 38.1 °F 30.9 °F 30.33 in NE 1.0 mph 8.0 mph 75% 0.00 in
12:14 38.2 °F 31.0 °F 30.33 in NE 4.0 mph 5.0 mph 75% 0.00 in
12:19 37.7 °F 30.8 °F 30.33 in NE 4.0 mph 8.0 mph 76% 0.00 in
12:24 37.5 °F 30.6 °F 30.34 in NNE 4.0 mph 8.0 mph 76% 0.00 in
12:29 37.5 °F 30.6 °F 30.34 in NNE 4.0 mph 6.0 mph 76% 0.00 in
12:34 37.8 °F 30.9 °F 30.34 in NNE 4.0 mph 7.0 mph 76% 0.00 in
12:39 37.9 °F 31.0 °F 30.33 in NNE 3.0 mph 6.0 mph 76% 0.00 in
12:44 38.2 °F 31.0 °F 30.33 in NE 3.0 mph 5.0 mph 75% 0.00 in
12:49 38.3 °F 31.1 °F 30.33 in NNE 3.0 mph 9.0 mph 75% 0.00 in
12:54 38.3 °F 31.1 °F 30.33 in NE 4.0 mph 9.0 mph 75% 0.00 in
13:00 38.3 °F 30.7 °F 30.33 in North 2.0 mph 6.0 mph 74% 0.00 in
13:04 38.4 °F 30.8 °F 30.33 in NNE 3.0 mph 6.0 mph 74% 0.00 in
13:09 38.3 °F 30.7 °F 30.33 in NE 2.0 mph 7.0 mph 74% 0.00 in
13:15 38.5 °F 30.9 °F 30.33 in NNE 2.0 mph 8.0 mph 74% 0.00 in
13:20 38.8 °F 30.5 °F 30.33 in NE 3.0 mph 8.0 mph 72% 0.00 in
13:25 38.9 °F 30.6 °F 30.33 in NE 3.0 mph 6.0 mph 72% 0.00 in
13:29 38.9 °F 30.6 °F 30.33 in ENE 2.0 mph 5.0 mph 72% 0.00 in
13:35 38.6 °F 30.7 °F 30.34 in ENE 2.0 mph 5.0 mph 73% 0.00 in
13:39 38.4 °F 30.5 °F 30.34 in NE 2.0 mph 5.0 mph 73% 0.00 in
13:44 38.4 °F 30.5 °F 30.33 in NE 2.0 mph 8.0 mph 73% 0.00 in
13:49 38.5 °F 30.6 °F 30.33 in NE 2.0 mph 7.0 mph 73% 0.00 in
13:54 38.5 °F 30.3 °F 30.33 in Calm   4.0 mph 72% 0.00 in
13:59 38.7 °F 30.4 °F 30.33 in NNE 1.0 mph 6.0 mph 72% 0.00 in
14:04 38.8 °F 30.5 °F 30.33 in NE 2.0 mph 6.0 mph 72% 0.00 in
14:09 39.1 °F 30.5 °F 30.33 in NNE 2.0 mph 5.0 mph 71% 0.00 in
14:14 39.1 °F 30.5 °F 30.33 in NNE 1.0 mph 4.0 mph 71% 0.00 in
14:19 39.1 °F 30.8 °F 30.33 in NW 1.0 mph 5.0 mph 72% 0.00 in
14:24 39.1 °F 30.5 °F 30.33 in NNW 1.0 mph 5.0 mph 71% 0.00 in
14:30 39.0 °F 30.0 °F 30.32 in North 2.0 mph 5.0 mph 70% 0.00 in
14:34 39.2 °F 30.2 °F 30.32 in NNE 2.0 mph 4.0 mph 70% 0.00 in
14:39 39.2 °F 30.6 °F 30.32 in NE 2.0 mph 5.0 mph 71% 0.00 in
14:44 39.4 °F 30.4 °F 30.32 in NNE 2.0 mph 5.0 mph 70% 0.00 in
14:49 39.5 °F 30.5 °F 30.32 in NW 2.0 mph 4.0 mph 70% 0.00 in
14:55 39.3 °F 30.0 °F 30.32 in NW 2.0 mph 5.0 mph 69% 0.00 in
14:59 39.3 °F 30.0 °F 30.32 in Calm     69% 0.00 in
15:04 39.5 °F 30.5 °F 30.32 in Calm   4.0 mph 70% 0.00 in
15:09 39.4 °F 30.1 °F 30.32 in NE 1.0 mph 5.0 mph 69% 0.00 in
15:14 39.7 °F 30.7 °F 30.32 in NNW 3.0 mph 4.0 mph 70% 0.00 in
15:19 39.4 °F 30.4 °F 30.32 in West 1.0 mph 4.0 mph 70% 0.00 in
15:24 39.5 °F 30.5 °F 30.32 in WNW 2.0 mph 3.0 mph 70% 0.00 in
15:29 39.5 °F 30.5 °F 30.32 in NNW 2.0 mph 5.0 mph 70% 0.00 in
15:34 39.7 °F 30.7 °F 30.32 in WNW 2.0 mph 4.0 mph 70% 0.00 in
15:39 39.6 °F 30.6 °F 30.32 in WNW 2.0 mph 4.0 mph 70% 0.00 in
15:44 39.5 °F 30.2 °F 30.32 in WNW 3.0 mph 7.0 mph 69% 0.00 in
15:49 39.5 °F 30.5 °F 30.32 in WNW 3.0 mph 7.0 mph 70% 0.00 in
15:54 39.3 °F 30.3 °F 30.32 in WNW 2.0 mph 6.0 mph 70% 0.00 in
16:00 39.4 °F 30.4 °F 30.32 in WNW 3.0 mph 7.0 mph 70% 0.00 in
16:05 39.6 °F 30.6 °F 30.32 in WNW 2.0 mph 7.0 mph 70% 0.00 in
16:10 39.6 °F 30.6 °F 30.31 in West 5.0 mph 6.0 mph 70% 0.00 in
16:14 39.4 °F 30.4 °F 30.31 in West 3.0 mph 7.0 mph 70% 0.00 in
16:19 39.3 °F 30.3 °F 30.31 in WNW 2.0 mph 4.0 mph 70% 0.00 in
16:24 39.5 °F 30.5 °F 30.31 in West 3.0 mph 3.0 mph 70% 0.00 in
16:29 39.3 °F 30.0 °F 30.32 in West 1.0 mph 6.0 mph 69% 0.00 in
16:34 39.4 °F 30.4 °F 30.31 in NW 2.0 mph 6.0 mph 70% 0.00 in
16:39 39.3 °F 30.0 °F 30.31 in Calm   4.0 mph 69% 0.00 in
16:44 39.2 °F 30.2 °F 30.31 in West 3.0 mph 6.0 mph 70% 0.00 in
16:49 39.2 °F 30.6 °F 30.31 in West 3.0 mph 6.0 mph 71% 0.00 in
16:54 39.2 °F 30.6 °F 30.31 in West 3.0 mph 6.0 mph 71% 0.00 in
16:59 38.5 °F 30.3 °F 30.31 in West 3.0 mph 6.0 mph 72% 0.00 in
17:04 38.2 °F 30.6 °F 30.31 in West 2.0 mph 6.0 mph 74% 0.00 in
17:09 37.8 °F 30.6 °F 30.31 in SW 8.0 mph 8.0 mph 75% 0.00 in
17:14 37.5 °F 30.6 °F 30.31 in WSW 4.0 mph 8.0 mph 76% 0.00 in
17:19 37.3 °F 30.7 °F 30.31 in WSW 4.0 mph 8.0 mph 77% 0.00 in
17:24 37.3 °F 30.7 °F 30.31 in SSW 3.0 mph 8.0 mph 77% 0.00 in
17:29 37.1 °F 30.9 °F 30.31 in SW 4.0 mph 7.0 mph 78% 0.00 in
17:34 37.0 °F 31.1 °F 30.31 in SSW 3.0 mph 8.0 mph 79% 0.00 in
17:39 36.9 °F 31.0 °F 30.31 in SW 6.0 mph 6.0 mph 79% 0.00 in
17:44 37.0 °F 31.1 °F 30.31 in SW 3.0 mph 6.0 mph 79% 0.00 in
17:49 37.1 °F 31.2 °F 30.31 in SW 3.0 mph 6.0 mph 79% 0.00 in
17:54 37.1 °F 31.2 °F 30.30 in SW 3.0 mph 5.0 mph 79% 0.00 in
17:59 37.2 °F 31.3 °F 30.31 in WSW 2.0 mph 4.0 mph 79% 0.00 in
18:05 37.2 °F 31.3 °F 30.31 in SW 2.0 mph 4.0 mph 79% 0.00 in
18:09 37.1 °F 31.2 °F 30.31 in WSW 4.0 mph 6.0 mph 79% 0.00 in
18:14 36.9 °F 31.0 °F 30.31 in SW 1.0 mph 4.0 mph 79% 0.00 in
18:19 37.0 °F 31.1 °F 30.31 in SW 2.0 mph 4.0 mph 79% 0.00 in
18:24 37.2 °F 31.0 °F 30.31 in SW 3.0 mph 7.0 mph 78% 0.00 in
18:29 37.1 °F 30.9 °F 30.31 in SW 2.0 mph 7.0 mph 78% 0.00 in
18:34 37.0 °F 30.5 °F 30.31 in SW 3.0 mph 7.0 mph 77% 0.00 in
18:39 37.0 °F 30.5 °F 30.31 in WSW 3.0 mph 5.0 mph 77% 0.00 in
18:44 36.8 °F 30.6 °F 30.31 in SW 3.0 mph 5.0 mph 78% 0.00 in
18:49 36.4 °F 30.5 °F 30.31 in SW 3.0 mph 5.0 mph 79% 0.00 in
18:54 36.2 °F 30.6 °F 30.31 in SSW 2.0 mph 5.0 mph 80% 0.00 in
18:59 36.1 °F 30.5 °F 30.31 in WSW 3.0 mph 5.0 mph 80% 0.00 in
19:04 36.0 °F 30.4 °F 30.31 in SW 1.0 mph 6.0 mph 80% 0.00 in
19:09 35.8 °F 30.2 °F 30.31 in WSW 4.0 mph 6.0 mph 80% 0.00 in
19:14 35.8 °F 30.2 °F 30.32 in SSW 2.0 mph 5.0 mph 80% 0.00 in
19:19 35.7 °F 30.1 °F 30.32 in WSW 3.0 mph 7.0 mph 80% 0.00 in
19:24 35.6 °F 30.0 °F 30.32 in SW 4.0 mph 7.0 mph 80% 0.00 in
19:29 35.4 °F 29.8 °F 30.32 in SW 3.0 mph 6.0 mph 80% 0.00 in
19:34 35.3 °F 30.1 °F 30.32 in SW 3.0 mph 6.0 mph 81% 0.00 in
19:39 35.1 °F 29.6 °F 30.32 in SW 2.0 mph 5.0 mph 80% 0.00 in
19:44 34.8 °F 29.6 °F 30.31 in Calm   3.0 mph 81% 0.00 in
19:49 34.6 °F 29.7 °F 30.31 in SW 1.0 mph 3.0 mph 82% 0.00 in
19:54 34.3 °F 29.4 °F 30.31 in SW 2.0 mph 4.0 mph 82% 0.00 in
19:59 34.0 °F 29.4 °F 30.31 in SW 2.0 mph 4.0 mph 83% 0.00 in
20:04 33.9 °F 29.3 °F 30.31 in SW 3.0 mph 4.0 mph 83% 0.00 in
20:09 33.8 °F 29.2 °F 30.31 in WSW 3.0 mph 5.0 mph 83% 0.00 in
20:14 33.5 °F 29.2 °F 30.31 in SW 4.0 mph 5.0 mph 84% 0.00 in
20:19 33.5 °F 29.2 °F 30.31 in South 2.0 mph 6.0 mph 84% 0.00 in
20:24 33.4 °F 29.1 °F 30.31 in SW 2.0 mph 6.0 mph 84% 0.00 in
20:29 33.2 °F 28.9 °F 30.31 in SW 2.0 mph 4.0 mph 84% 0.00 in
20:34 33.0 °F 29.0 °F 30.31 in SW 2.0 mph 4.0 mph 85% 0.00 in
20:39 32.7 °F 28.7 °F 30.31 in SSW 2.0 mph 4.0 mph 85% 0.00 in
20:44 32.5 °F 28.8 °F 30.31 in SW 3.0 mph 3.0 mph 86% 0.00 in
20:49 32.4 °F 28.7 °F 30.31 in Calm   3.0 mph 86% 0.00 in
20:54 32.2 °F 28.5 °F 30.31 in SW 1.0 mph 3.0 mph 86% 0.00 in
20:59 31.9 °F 28.2 °F 30.32 in SW 1.0 mph 3.0 mph 86% 0.00 in
21:04 31.7 °F 28.3 °F 30.31 in SW 1.0 mph 3.0 mph 87% 0.00 in
21:09 31.8 °F 28.4 °F 30.31 in SW 2.0 mph 3.0 mph 87% 0.00 in
21:14 31.8 °F 28.4 °F 30.32 in SW 2.0 mph 4.0 mph 87% 0.00 in
21:19 31.7 °F 28.6 °F 30.32 in SW 1.0 mph 3.0 mph 88% 0.00 in
21:24 31.7 °F 28.6 °F 30.32 in SW 1.0 mph 3.0 mph 88% 0.00 in
21:29 31.6 °F 28.5 °F 30.32 in SW 1.0 mph 3.0 mph 88% 0.00 in
21:34 31.4 °F 28.3 °F 30.32 in SW 1.0 mph 3.0 mph 88% 0.00 in
21:39 31.3 °F 28.2 °F 30.32 in SW 1.0 mph 3.0 mph 88% 0.00 in
21:44 31.3 °F 28.2 °F 30.32 in SW 1.0 mph 2.0 mph 88% 0.00 in
21:49 31.6 °F 28.5 °F 30.32 in SW 2.0 mph 6.0 mph 88% 0.00 in
21:54 31.7 °F 28.8 °F 30.32 in SSW 1.0 mph 4.0 mph 89% 0.00 in
21:59 31.7 °F 28.8 °F 30.32 in SW 3.0 mph 6.0 mph 89% 0.00 in
22:04 31.7 °F 28.8 °F 30.32 in SW 3.0 mph 6.0 mph 89% 0.00 in
22:09 31.6 °F 28.7 °F 30.32 in SW 2.0 mph 6.0 mph 89% 0.00 in
22:14 31.6 °F 28.7 °F 30.32 in SW 3.0 mph 6.0 mph 89% 0.00 in
22:19 31.5 °F 28.4 °F 30.31 in WSW 3.0 mph 6.0 mph 88% 0.00 in
22:24 31.4 °F 28.3 °F 30.31 in SW 2.0 mph 6.0 mph 88% 0.00 in
22:29 31.4 °F 28.3 °F 30.31 in SW 3.0 mph 6.0 mph 88% 0.00 in
22:34 31.2 °F 28.1 °F 30.31 in SW 2.0 mph 5.0 mph 88% 0.00 in
22:39 31.1 °F 28.0 °F 30.31 in SW 2.0 mph 4.0 mph 88% 0.00 in
22:44 30.9 °F 27.8 °F 30.31 in SW 2.0 mph 4.0 mph 88% 0.00 in
22:49 30.9 °F 27.8 °F 30.31 in SW 2.0 mph 3.0 mph 88% 0.00 in
22:54 30.6 °F 27.5 °F 30.31 in SW 2.0 mph 2.0 mph 88% 0.00 in
22:59 30.5 °F 27.6 °F 30.31 in WSW 1.0 mph 3.0 mph 89% 0.00 in
23:04 30.4 °F 27.5 °F 30.31 in WSW 1.0 mph 3.0 mph 89% 0.00 in
23:09 30.3 °F 27.4 °F 30.31 in WSW 1.0 mph 3.0 mph 89% 0.00 in
23:14 30.3 °F 27.4 °F 30.31 in SW 1.0 mph 3.0 mph 89% 0.00 in
23:19 30.4 °F 27.5 °F 30.31 in SW 1.0 mph 3.0 mph 89% 0.00 in
23:24 30.2 °F 27.3 °F 30.31 in Calm   3.0 mph 89% 0.00 in
23:29 30.2 °F 27.3 °F 30.31 in Calm   2.0 mph 89% 0.00 in
23:34 30.2 °F 27.3 °F 30.31 in SW 2.0 mph 2.0 mph 89% 0.00 in
23:39 30.1 °F 27.3 °F 30.31 in SW 1.0 mph 3.0 mph 89% 0.00 in
23:44 30.1 °F 27.3 °F 30.31 in SW 1.0 mph 3.0 mph 89% 0.00 in
23:49 30.0 °F 27.4 °F 30.31 in WSW 1.0 mph 3.0 mph 90% 0.00 in
23:54 30.0 °F 27.4 °F 30.30 in SW 1.0 mph 3.0 mph 90% 0.00 in
23:59 30.1 °F 27.5 °F 30.30 in Calm   2.0 mph 90% 0.00 in
Buffalo, New York, USA
Compliments of Weather Underground - 2.5 mb